This is the latest recevied weather packets stored in our database for station/object EA3FHP. If no packets are shown the sender has not sent any weather packets the latest 10 day(s).
| Time | Temp. | Humidity | Pressure | Rain* | Wind** | Luminosity | Snow |
|---|---|---|---|---|---|---|---|
| 1787748603 | 27.78° C | 54% | 1016 hPa | 0 mm | - | - | - |
| 1787748004 | 27.78° C | 55% | 1016.2 hPa | 0 mm | - | - | - |
| 1787747403 | 28.33° C | 56% | 1016.7 hPa | 0 mm | - | - | - |
| 1787746804 | 27.22° C | 57% | 1016.7 hPa | 0 mm | - | - | - |
| 1787746204 | 26.67° C | 60% | 1016.9 hPa | 0 mm | - | - | - |
| 1787745605 | 26.67° C | 61% | 1017.2 hPa | 0 mm | - | - | - |
| 1787745003 | 26.11° C | 60% | 1017 hPa | 0 mm | - | - | - |
| 1787744403 | 26.67° C | 62% | 1017.3 hPa | 0 mm | - | - | - |
| 1787743804 | 26.67° C | 62% | 1017 hPa | 0 mm | - | - | - |
| 1787743204 | 26.67° C | 61% | 1016.5 hPa | 0 mm | - | - | - |
| 1787742603 | 26.11° C | 61% | 1016.9 hPa | 0 mm | - | - | - |
| 1787742004 | 25.56° C | 62% | 1017.2 hPa | 0 mm | - | - | - |
| 1787741404 | 25° C | 62% | 1017.1 hPa | 0 mm | - | - | - |
| 1787740803 | 25° C | 64% | 1017.3 hPa | 0 mm | - | - | - |
| 1787740203 | 24.44° C | 67% | 1018 hPa | 0 mm | - | - | - |
| 1787739603 | 25° C | 66% | 1017.3 hPa | 0 mm | - | - | - |
| 1787739003 | 23.89° C | 69% | 1015.3 hPa | 0 mm | - | - | - |
| 1787738404 | 23.33° C | 73% | 1015.8 hPa | 0 mm | - | - | - |
| 1787737803 | 22.22° C | 74% | 1016.4 hPa | 0 mm | - | - | - |
| 1787737203 | 21.67° C | 75% | 1016.3 hPa | 0 mm | - | - | - |
| 1787736603 | 21.67° C | 76% | 1016.3 hPa | 0 mm | - | - | - |
| 1787736003 | 21.67° C | 75% | 1017.1 hPa | 0 mm | - | - | - |
| 1787735403 | 21.11° C | 76% | 1017.3 hPa | 0 mm | - | - | - |
| 1787734804 | 21.11° C | 77% | 1016.5 hPa | 0 mm | - | - | - |
| 1787734203 | 21.67° C | 76% | 1016.3 hPa | 0 mm | - | - | - |
* Rain latest hour (hover to see other rain measurements)
** Current wind speed in m/s (hover to see current wind gust speed)